Find Starlink 1997

NORAD ID: 47592 Int'l Des: 2021-009 Owner: SPXS Country: US Constellation: starlink operational
LEOCIRCULAR

現在のビュー

3D地球を読み込み中...

About Starlink 1997

Starlink 1997 (NORAD 47592) is a starlink constellation satellite (v1.0) launched Feb 4, 2021 by SPXS of US. It operates in LEO, CIRCULAR orbit with a mass of 260.00 kg.

Starlink 1997について

説明を読み込み中...

次回通過

Passes for default location (London). Set your location on the main map for personalized predictions.

高度履歴

Loading altitude history...

軌道要素

1 47592U 21009AW 26163.83335647 .00386306 70812-4 94018-3 0 9999
2 47592 53.0275 244.6667 0012166 350.2945 179.6730 15.95596679 6056
Epoch: Jun 12, 2026 • Age: 13 hours

現在のステータス

高度 291.1 km
速度 7.74 km/s
衛星直下点 -36.64°S, 177.18°E
打ち上げ日 Feb 4, 2021
運用期間 5.3 years
タイプ internet

技術仕様

分類 Payload
質量 260.00 kg
乾燥質量 248.00 kg
総質量 260.00 kg
長さ 0.20 m
直径 2.80 m
スパン 9.00 m
形状 Box + pan
製造者 SPXS
バスタイプ Starlink
フェーズステータス In Orbit
所有者/国 SPXS/US

Most Searched